Lubbock, TX

9:15 PM CST on November 17, 2019 (GMT -0600)
Lubbock International

Weather History for KLBB - August, 2019

Change the Weather History Date:

Friday, August 2, 2019

  Actual Average Record
Temperature  
Mean Temperature 88 °F 80 °F  
Max Temperature 101 °F 93 °F 105 °F (1943)
Min Temperature 74 °F 68 °F 54 °F (1925)
Degree Days  
Heating Degree Days 0 0  
Month to date heating degree days 0 0  
Since 1 June heating degree days 0 2  
Since 1 July heating degree days 0 0  
Cooling Degree Days 23 15  
Month to date cooling degree days 43 30  
Year to date cooling degree days 1150 1123  
Since 1 June cooling degree days 940 877  
Growing Degree Days 38 (Base 50)    
Moisture  
Dew Point 54 °F    
Average Humidity 34    
Maximum Humidity 50    
Minimum Humidity 18    
Precipitation  
Precipitation 0.00 in 0.06 in 0.65 in (1921)
Month to date precipitation 0.00 0.11  
Year to date precipitation 13.45 11.27  
Snow  
Snow 0.00 in 0.00 in 0.00 in (2002)
Month to date snowfall 0.0 0.0  
Since 1 June snowfall 0.0 0.0  
Since 1 July snowfall 0.0 0.0  
Snow Depth 0.00 in    
Sea Level Pressure  
Sea Level Pressure 29.88 in    
Wind  
Wind Speed 11 mph (SSW)    
Max Wind Speed 21 mph    
Max Gust Speed 33 mph    
Visibility 10 miles    
Events      
T = Trace of Precipitation, MM = Missing Value Source: NWS Daily Summary

Daily Weather History Graph

Daily Weather History Graph

Search for Another Location

Airport or City:

Astronomy

Aug. 02, 2019 Rise Set
Actual Time 7:00 AM CDT 8:46 PM CDT
Civil Twilight 6:32 AM CDT 9:13 PM CDT
Nautical Twilight 5:59 AM CDT 9:46 PM CDT
Astronomical Twilight 5:25 AM CDT 10:21 PM CDT
Moon 8:38 AM CDT (8/2) 10:21 PM CDT (8/2)
Length of Visible Light 14h 40m
Length of Day
13h 46m
Waxing Crescent, 4% of the Moon is Illuminated
Aug 2
Waxing Crescent
Aug 7
First Quarter
Aug 15
Full
Aug 23
Last Quarter
Aug 30
New

Hourly Weather History & Observations

Time (CDT) Temp. Heat Index Dew Point Humidity Pressure Visibility Wind Dir Wind Speed Gust Speed Precip Events Conditions
12:53 AM 82.0 °F 81.6 °F 55.9 °F 41% 29.92 in 10.0 mi South 11.5 mph - N/A   Clear
1:53 AM 78.1 °F - 57.0 °F 48% 29.92 in 10.0 mi SE 8.1 mph - N/A   Clear
2:53 AM 78.1 °F - 57.0 °F 48% 29.91 in 10.0 mi South 8.1 mph - N/A   Clear
3:53 AM 79.0 °F - 55.0 °F 44% 29.90 in 10.0 mi South 12.7 mph - N/A   Clear
4:53 AM 80.1 °F 80.0 °F 54.0 °F 40% 29.88 in 10.0 mi South 12.7 mph - N/A   Clear
5:53 AM 79.0 °F - 54.0 °F 42% 29.88 in 10.0 mi SW 10.4 mph - N/A   Clear
6:53 AM 78.1 °F - 55.0 °F 45% 29.89 in 10.0 mi SW 12.7 mph - N/A   Mostly Cloudy
7:53 AM 75.0 °F - 55.0 °F 50% 29.92 in 10.0 mi West 8.1 mph - N/A   Mostly Cloudy
8:53 AM 79.0 °F - 57.0 °F 47% 29.93 in 10.0 mi WSW 11.5 mph - N/A   Mostly Cloudy
9:53 AM 84.9 °F 84.2 °F 57.9 °F 40% 29.94 in 10.0 mi WSW 11.5 mph - N/A   Mostly Cloudy
10:53 AM 87.1 °F 86.1 °F 57.9 °F 37% 29.94 in 10.0 mi WSW 12.7 mph - N/A   Mostly Cloudy
11:53 AM 91.0 °F 90.0 °F 57.9 °F 33% 29.93 in 10.0 mi SW 10.4 mph - N/A   Mostly Cloudy
12:53 PM 95.0 °F 93.7 °F 57.0 °F 28% 29.91 in 10.0 mi SW 15.0 mph 23.0 mph N/A   Mostly Cloudy
1:53 PM 97.0 °F 94.6 °F 53.1 °F 23% 29.89 in 10.0 mi SSW 13.8 mph 23.0 mph N/A   Mostly Cloudy
2:53 PM 98.1 °F - 51.1 °F 20% 29.87 in 10.0 mi SW 15.0 mph 21.9 mph N/A   Mostly Cloudy
3:53 PM 99.0 °F - 50.0 °F 19% 29.86 in 10.0 mi South 11.5 mph 21.9 mph N/A   Scattered Clouds
4:53 PM 100.0 °F - 51.1 °F 19% 29.83 in 10.0 mi South 11.5 mph 19.6 mph N/A   Scattered Clouds
5:53 PM 100.0 °F - 50.0 °F 18% 29.81 in 10.0 mi South 16.1 mph - N/A   Scattered Clouds
6:53 PM 98.1 °F - 48.9 °F 19% 29.82 in 10.0 mi South 10.4 mph - N/A   Scattered Clouds
7:53 PM 95.0 °F - 52.0 °F 23% 29.82 in 10.0 mi SSE 9.2 mph - N/A   Scattered Clouds
8:53 PM 91.9 °F - 52.0 °F 26% 29.82 in 10.0 mi South 10.4 mph - N/A   Scattered Clouds
9:53 PM 89.1 °F 86.7 °F 53.1 °F 29% 29.82 in 10.0 mi South 9.2 mph - N/A   Scattered Clouds
10:53 PM 89.1 °F 86.7 °F 53.1 °F 29% 29.84 in 10.0 mi South 10.4 mph - N/A   Mostly Cloudy
11:53 PM 88.0 °F 85.7 °F 53.1 °F 30% 29.84 in 10.0 mi South 9.2 mph - N/A   Mostly Cloudy